Location: Dana
(41.8364°N, 106.7042°W)
Time: 05:01:26
(UTC+00:00)

SR - All Passes

Search period start: 10 May 2026 00:00
Search period end: 20 May 2026 00:00
Orbit: 568 x 852 km, 66.7° (Epoch: 9 May)

Date Brightness Start Highest point End Pass type
(mag) Time Alt. Az. Time Alt. Az. Time Alt. Az.
10 May - 01:20:48 10° NW 01:25:58 36° WSW 01:31:08 10° S daylight
10 May - 14:07:39 10° SSE 14:10:51 18° ESE 14:14:14 10° ENE daylight
10 May - 15:47:20 10° SW 15:51:59 54° NW 15:57:04 10° NNE daylight
10 May - 17:33:28 10° NW 17:34:59 11° NNW 17:36:32 10° NNW daylight
10 May - 22:44:21 10° N 22:48:43 22° NE 22:53:08 10° E daylight
11 May - 00:25:17 10° NNW 00:31:01 75° WSW 00:36:45 10° SSE daylight
11 May - 02:10:42 10° W 02:11:47 11° W 02:12:52 10° WSW daylight
11 May - 14:52:10 10° SSW 14:56:50 68° ESE 15:01:56 10° NE daylight
11 May - 16:35:31 10° W 16:39:06 20° NW 16:42:54 10° N daylight
11 May - 21:50:20 10° N 21:52:52 13° NE 21:55:26 10° ENE daylight
11 May - 23:30:12 10° NNW 23:35:49 56° NE 23:41:29 10° SE daylight
12 May - 01:12:40 10° NW 01:17:11 24° WSW 01:21:42 10° SSW daylight
12 May - 13:57:58 10° SSE 14:01:59 29° ESE 14:06:18 10° NE daylight
12 May - 15:39:02 10° WSW 15:43:29 37° NW 15:48:20 10° NNE daylight
12 May - 22:35:25 10° NNW 22:40:23 30° NE 22:45:23 10° ESE daylight
13 May - 00:16:48 10° NW 00:22:22 51° WSW 00:27:53 10° S daylight
13 May - 13:05:40 10° ESE 13:07:24 12° ESE 13:09:11 10° E daylight
13 May - 14:43:26 10° SSW 14:48:11 80° WNW 14:53:24 10° NNE daylight
13 May - 16:28:01 10° WNW 16:30:50 15° NW 16:33:47 10° N daylight
13 May - 21:41:02 10° N 21:44:40 17° NE 21:48:21 10° E daylight
13 May - 23:21:32 10° NNW 23:27:17 79° ENE 23:33:03 10° SSE daylight
14 May - 01:04:54 10° WNW 01:08:20 16° WSW 01:11:46 10° SW daylight
14 May - 13:48:43 10° S 13:53:10 44° ESE 13:58:03 10° NE daylight
14 May - 15:30:58 10° WSW 15:35:05 26° NW 15:39:31 10° N daylight
14 May - 22:26:35 10° NNW 22:31:58 40° NE 22:37:23 10° ESE daylight
15 May - 00:08:28 10° NW 00:13:38 35° WSW 00:18:45 10° S daylight
15 May - 12:55:08 10° SSE 12:58:28 19° ESE 13:01:58 10° ENE daylight
15 May - 14:34:56 10° SW 14:39:36 53° NW 14:44:45 10° NNE daylight
15 May - 16:21:05 10° NW 16:22:39 11° NNW 16:24:14 10° NNW daylight
15 May - 21:31:59 10° N 21:36:24 23° NE 21:40:52 10° E daylight
15 May - 23:12:56 10° NW 23:18:41 73° WSW 23:24:24 10° SSE daylight
16 May - 00:58:45 10° W 00:59:26 10° W 01:00:05 10° WSW daylight
16 May - 13:39:44 10° SSW 13:44:27 70° ESE 13:49:37 10° NE daylight
16 May - 15:23:08 10° W 15:26:45 20° NW 15:30:34 10° N daylight
16 May - 20:37:55 10° N 20:40:33 13° NE 20:43:12 10° ENE daylight
16 May - 22:17:50 10° NNW 22:23:30 57° NE 22:29:09 10° SE daylight
17 May - 00:00:21 10° NW 00:04:50 24° WSW 00:09:17 10° SSW daylight
17 May - 12:45:30 10° S 12:49:35 29° ESE 12:54:00 10° NE daylight
17 May - 14:26:38 10° WSW 14:31:07 37° NW 14:36:00 10° NNE daylight
17 May - 21:23:03 10° NNW 21:28:03 30° NE 21:33:05 10° ESE daylight
17 May - 23:04:28 10° NW 23:10:01 50° WSW 23:15:31 10° S daylight
18 May - 11:53:01 10° SE 11:55:00 12° ESE 11:57:01 10° ENE daylight
18 May - 13:31:00 10° SW 13:35:48 78° WNW 13:41:03 10° NNE daylight
18 May - 15:15:37 10° WNW 15:18:29 15° NW 15:21:27 10° N daylight
18 May - 20:28:37 10° N 20:32:20 17° NE 20:36:05 10° E daylight
18 May - 22:09:10 10° NNW 22:14:57 80° ENE 22:20:42 10° SSE daylight
18 May - 23:52:37 10° WNW 23:55:58 16° WSW 23:59:18 10° SW daylight
19 May - 12:36:15 10° S 12:40:47 46° ESE 12:45:44 10° NE daylight
19 May - 14:18:34 10° WSW 14:22:42 26° NW 14:27:10 10° N daylight
19 May - 19:35:42 10° NNE 19:36:21 10° NNE 19:37:00 10° NE daylight
19 May - 21:14:12 10° NNW 21:19:38 41° NE 21:25:03 10° ESE daylight
19 May - 22:56:08 10° NW 23:01:16 34° WSW 23:06:21 10° S daylight
